Погода в Долинском

Украина / Одесская область     45°28′19″N   28°19′41″E
темп.,
°C
ветер,
м/с
пор.,
м/с
влажн.,
%
обл.,
%
осадки,
мм/ч
давл.,
гПа
погр.,
м
2 марта, вт
вт223:00+3с498390 0.0 1034591
02:00+1ссз358691 0.0 1035165
05:00+1с238690 0.0 103464
08:00+2зсз118460 0.0 103473
11:00+6зсз246240 0.0 1033948
14:00+9зсз454652 0.0 10311200
17:00+9зюз565117 0.0 1029753
20:00+6зюз497229 0.0 1028195
3 марта, ср
ср323:00+5з347629 0.0 102872
02:00+6ссз5147048 0.0 1029505
05:00+4ссз512800 0.0 1029429
08:00+5с510810 0.0 1031465
11:00+9с56620 0.0 1031905
14:00+11ссз465120 0.0 10301197
17:00+11с24500 0.0 10291188
20:00+8ююв12620 0.0 102922
4 марта, чт
чт423:00+7ю23670 0.0 102823
02:00+5ююз46750 0.0 1026140
05:00+4ююз410800 0.0 1023226
08:00+5ююз611780 0.0 1022339
11:00+11юз711540 0.0 1019602
14:00+15юз710420 0.0 1017732
17:00+14юз694570 0.0 1014538
20:00+10юз496235 0.0 1015170
5 марта, пт
пт523:00+8юз47710 0.0 1014125
02:00+7юз347313 0.0 101356
05:00+6ююз347876 0.0 101281
08:00+6юз367587 0.0 1012196
11:00+11юз455294 0.0 1011352
14:00+14зюз343671 0.0 1010758
17:00+14юз12350 0.0 101044
20:00+11зюз224215 0.0 101223
6 марта, сб
сб623:00+10ссз5105790 0.0 1013218
02:00+7с7128193 0.0 1014457
05:00+5с81276100 0.0 1016641
08:00+4с81273100 0.0 1019880
11:00+4ссв71062100 0.0 10221143
14:00+5с8943100 0.1 10241604
17:00+5с6838100 0.0 10251769
20:00+3ссв4942100 0.0 1028467